Back to catalog

STARLINK-36790

AliveCommunicationsVLEO
NORAD 68095·PAYLOAD·🇺🇸 United States

Launched Mar 4, 2026 from Vandenberg Space Force Base

Loading…

Next Passes (next 24 hours)

TLE

FreshSource: CelesTrak SupGP

Epoch: Sep 14, 2026, 23:16 UTC

1 68095C 26042AC  26257.96993056 -.00013188  00000+0 -38976-3 0  2576
2 68095  53.1599  15.3964 0001240  86.4876 252.7786 15.34387820    15

Track STARLINK-36790 in real time with AllMySat

Download on the App Store